TimeCDT,TemperatureF,Dew PointF,Humidity,Sea Level PressureIn,VisibilityMPH,Wind Direction,Wind SpeedMPH,Gust SpeedMPH,PrecipitationIn,Events,Conditions,WindDirDegrees,DateUTC
12:53 AM,77.0,75.0,94,29.87,10.0,ENE,3.5,-,N/A,,Mostly Cloudy,70,2013-09-24 05:53:00
1:53 AM,75.9,75.0,97,29.87,8.0,Calm,Calm,-,0.00,Rain,Light Rain,0,2013-09-24 06:53:00
2:40 AM,75.2,75.2,100,29.87,10.0,ENE,3.5,-,0.00,,Mostly Cloudy,60,2013-09-24 07:40:00
2:53 AM,75.9,75.0,97,29.87,10.0,ENE,4.6,-,0.00,,Mostly Cloudy,60,2013-09-24 07:53:00
3:53 AM,75.9,75.0,97,29.86,10.0,Calm,Calm,-,0.02,,Scattered Clouds,0,2013-09-24 08:53:00
4:32 AM,75.2,75.2,100,29.87,8.0,SE,4.6,-,0.00,Rain,Light Rain,130,2013-09-24 09:32:00
4:53 AM,75.9,75.0,97,29.87,10.0,ESE,6.9,-,0.00,Rain,Light Rain,110,2013-09-24 09:53:00
5:53 AM,75.0,73.9,96,29.87,10.0,ESE,3.5,-,0.00,,Mostly Cloudy,110,2013-09-24 10:53:00
6:53 AM,75.9,75.0,97,29.88,10.0,ESE,3.5,-,N/A,,Mostly Cloudy,110,2013-09-24 11:53:00
7:53 AM,77.0,75.0,94,29.88,10.0,Calm,Calm,-,N/A,,Scattered Clouds,0,2013-09-24 12:53:00
8:05 AM,78.8,75.2,89,29.88,10.0,Calm,Calm,-,N/A,,Mostly Cloudy,0,2013-09-24 13:05:00
8:48 AM,78.8,75.2,89,29.89,10.0,East,4.6,-,N/A,,Mostly Cloudy,100,2013-09-24 13:48:00
8:53 AM,78.1,75.9,93,29.89,10.0,East,4.6,-,N/A,,Mostly Cloudy,100,2013-09-24 13:53:00
8:57 AM,78.8,75.2,89,29.88,10.0,East,5.8,-,N/A,,Mostly Cloudy,80,2013-09-24 13:57:00
9:09 AM,78.8,75.2,89,29.88,10.0,East,4.6,-,N/A,,Mostly Cloudy,100,2013-09-24 14:09:00
9:17 AM,78.8,75.2,89,29.88,10.0,East,4.6,-,N/A,,Mostly Cloudy,90,2013-09-24 14:17:00
9:53 AM,79.0,77.0,94,29.88,10.0,East,5.8,-,N/A,,Overcast,90,2013-09-24 14:53:00
10:44 AM,82.4,77.0,84,29.89,10.0,ESE,11.5,-,N/A,,Overcast,120,2013-09-24 15:44:00
10:53 AM,82.9,77.0,82,29.89,10.0,SE,10.4,-,N/A,,Overcast,140,2013-09-24 15:53:00
11:43 AM,84.2,73.4,70,29.86,10.0,SE,10.4,16.1,N/A,,Mostly Cloudy,130,2013-09-24 16:43:00
11:53 AM,86.0,75.0,70,29.86,10.0,SSE,9.2,-,N/A,,Scattered Clouds,160,2013-09-24 16:53:00
12:20 PM,84.2,75.2,74,29.85,10.0,SE,11.5,-,N/A,,Mostly Cloudy,140,2013-09-24 17:20:00
12:44 PM,84.2,73.4,70,29.84,10.0,SSE,15.0,-,N/A,,Partly Cloudy,150,2013-09-24 17:44:00
12:53 PM,84.0,75.0,74,29.84,10.0,SSE,11.5,19.6,N/A,,Scattered Clouds,150,2013-09-24 17:53:00
1:53 PM,84.9,75.0,72,29.81,10.0,SSE,8.1,-,N/A,,Scattered Clouds,150,2013-09-24 18:53:00
2:39 PM,84.2,75.2,74,29.79,10.0,SE,11.5,-,N/A,,Mostly Cloudy,140,2013-09-24 19:39:00
2:53 PM,87.1,73.9,65,29.79,10.0,SE,11.5,-,N/A,,Mostly Cloudy,140,2013-09-24 19:53:00
3:53 PM,82.9,73.9,74,29.80,10.0,SE,6.9,-,N/A,,Overcast,140,2013-09-24 20:53:00
4:36 PM,80.6,75.2,84,29.78,10.0,SE,8.1,-,0.00,Rain-Thunderstorm,Light Rain,140,2013-09-24 21:36:00
4:49 PM,80.6,77.0,89,29.78,10.0,SSE,5.8,-,0.00,Thunderstorm,Overcast,150,2013-09-24 21:49:00
4:53 PM,80.1,77.0,90,29.80,10.0,Calm,Calm,-,0.00,Thunderstorm,Overcast,0,2013-09-24 21:53:00
5:10 PM,80.6,77.0,89,29.80,10.0,East,3.5,-,0.00,Rain,Light Rain,100,2013-09-24 22:10:00
5:18 PM,80.6,77.0,89,29.80,10.0,SE,3.5,-,0.00,Rain-Thunderstorm,Light Thunderstorms and Rain,130,2013-09-24 22:18:00
5:41 PM,78.8,78.8,100,29.81,3.0,Calm,Calm,-,0.11,Rain-Thunderstorm,Thunderstorms and Rain,0,2013-09-24 22:41:00
5:47 PM,80.6,78.8,94,29.81,1.2,Calm,Calm,-,0.15,Rain-Thunderstorm,Heavy Thunderstorms and Rain,0,2013-09-24 22:47:00
5:53 PM,79.0,78.1,97,29.81,1.0,Calm,Calm,-,0.18,Rain-Thunderstorm,Heavy Thunderstorms and Rain,0,2013-09-24 22:53:00
6:00 PM,78.8,78.8,100,29.81,0.8,Calm,Calm,-,0.16,Rain-Thunderstorm,Heavy Thunderstorms and Rain,0,2013-09-24 23:00:00
6:09 PM,78.8,78.8,100,29.81,1.2,Calm,Calm,-,0.21,Rain-Thunderstorm,Thunderstorms and Rain,0,2013-09-24 23:09:00
6:17 PM,78.8,78.8,100,29.81,1.8,NNE,5.8,-,0.25,Rain-Thunderstorm,Heavy Thunderstorms and Rain,20,2013-09-24 23:17:00
6:22 PM,78.8,78.8,100,29.80,3.0,North,8.1,-,0.25,Rain-Thunderstorm,Light Thunderstorms and Rain,10,2013-09-24 23:22:00
6:30 PM,78.8,77.0,94,29.80,9.0,NNE,5.8,-,0.25,Rain-Thunderstorm,Light Thunderstorms and Rain,20,2013-09-24 23:30:00
6:39 PM,78.8,77.0,94,29.79,10.0,North,5.8,-,0.25,Thunderstorm,Thunderstorm,10,2013-09-24 23:39:00
6:53 PM,78.1,75.9,93,29.80,10.0,Calm,Calm,-,0.25,Thunderstorm,Overcast,0,2013-09-24 23:53:00
6:56 PM,78.8,75.2,89,29.79,10.0,Calm,Calm,-,N/A,Thunderstorm,Overcast,0,2013-09-24 23:56:00
7:09 PM,78.8,75.2,89,29.78,10.0,NNE,4.6,-,N/A,Thunderstorm,Overcast,20,2013-09-25 00:09:00
7:17 PM,77.0,75.2,94,29.78,10.0,North,4.6,-,0.00,Rain,Light Rain,350,2013-09-25 00:17:00
7:50 PM,77.0,75.2,94,29.79,10.0,NE,5.8,-,0.00,Thunderstorm,Mostly Cloudy,50,2013-09-25 00:50:00
7:53 PM,77.0,75.9,96,29.79,10.0,NE,6.9,-,0.00,Thunderstorm,Mostly Cloudy,50,2013-09-25 00:53:00
8:01 PM,77.0,75.2,94,29.79,10.0,NE,10.4,-,N/A,Thunderstorm,Overcast,50,2013-09-25 01:01:00
8:10 PM,75.2,73.4,94,29.80,10.0,ENE,8.1,-,N/A,,Overcast,70,2013-09-25 01:10:00
8:27 PM,73.4,71.6,94,29.80,10.0,East,9.2,-,N/A,,Overcast,100,2013-09-25 01:27:00
8:53 PM,73.0,72.0,96,29.81,10.0,East,5.8,-,N/A,,Scattered Clouds,90,2013-09-25 01:53:00
9:01 PM,73.4,71.6,94,29.80,10.0,East,9.2,-,N/A,,Scattered Clouds,90,2013-09-25 02:01:00
9:20 PM,73.4,71.6,94,29.80,10.0,ESE,8.1,-,N/A,,Mostly Cloudy,110,2013-09-25 02:20:00
9:51 PM,71.6,71.6,100,29.79,10.0,ESE,4.6,-,N/A,,Partly Cloudy,120,2013-09-25 02:51:00
9:53 PM,72.0,71.1,97,29.80,10.0,ESE,3.5,-,N/A,,Scattered Clouds,110,2013-09-25 02:53:00
10:53 PM,72.0,71.1,97,29.79,10.0,Calm,Calm,-,N/A,,Clear,0,2013-09-25 03:53:00
11:27 PM,71.6,71.6,100,29.79,10.0,NNW,4.6,-,N/A,,Mostly Cloudy,340,2013-09-25 04:27:00
11:53 PM,73.0,71.1,93,29.79,10.0,North,4.6,-,N/A,,Overcast,360,2013-09-25 04:53:00